EDT,Max TemperatureF,Mean TemperatureF,Min TemperatureF,Max Dew PointF,MeanDew PointF,Min DewpointF,Max Humidity, Mean Humidity, Min Humidity, Max Sea Level PressureIn, Mean Sea Level PressureIn, Min Sea Level PressureIn, Max VisibilityMiles, Mean VisibilityMiles, Min VisibilityMiles, Max Wind SpeedMPH, Mean Wind SpeedMPH, Max Gust SpeedMPH,PrecipitationIn, CloudCover, Events, WindDirDegrees
2013-8-1,80,71,62,68,66,61,100,84,57,30.03,30.01,29.97,10,8,1,9,3,16,0.00,5,,307
2013-8-2,80,70,59,68,62,59,100,80,51,30.08,30.05,30.02,10,9,3,9,4,,0.00,0,,245
2013-8-3,80,74,68,72,68,64,100,83,69,30.06,30.03,29.99,10,8,0,8,4,,0.30,6,Fog-Rain,256
2013-8-4,78,68,59,68,60,54,100,77,47,30.15,30.11,30.06,10,8,0,8,2,,0.01,3,Fog,14
2013-8-5,80,66,53,63,56,52,100,70,41,30.15,30.10,30.01,10,10,10,8,1,,0.00,1,,87
2013-8-6,82,74,66,70,64,59,100,74,58,30.03,30.00,29.98,10,10,10,8,2,,0.00,6,,179
2013-8-7,82,74,66,75,71,64,100,90,70,30.03,29.99,29.94,10,9,5,12,4,18,0.20,5,Rain,215
2013-8-8,80,74,69,73,72,70,100,91,78,30.03,29.99,29.95,10,10,3,12,5,17,0.30,6,Rain,239
2013-8-9,82,76,69,73,71,70,100,91,70,30.08,30.02,29.98,10,9,2,13,6,21,0.62,6,Rain,253
2013-8-10,78,74,71,73,72,70,100,91,74,30.15,30.11,30.07,10,7,0,9,2,,0.37,7,Rain,191
2013-8-11,84,76,69,73,71,70,100,90,66,30.16,30.12,30.08,10,6,0,9,2,,0.00,5,Fog,278
2013-8-12,78,71,64,72,70,64,100,92,78,30.12,30.05,29.95,10,7,0,9,2,,0.05,4,Fog-Rain,223
2013-8-13,78,72,64,70,66,57,100,85,61,30.05,29.96,29.91,10,10,4,10,5,16,0.01,6,Rain,320
2013-8-14,71,61,51,55,52,48,100,71,46,30.18,30.13,30.06,10,10,10,12,5,,0.00,1,,52
2013-8-15,73,62,50,57,52,48,100,75,44,30.18,30.15,30.09,10,10,10,12,3,16,0.00,0,,85
2013-8-16,78,66,53,61,58,54,100,77,54,30.18,30.14,30.11,10,10,10,9,3,,0.00,2,,64
2013-8-17,80,70,59,64,59,55,94,74,47,30.20,30.17,30.15,10,10,10,10,3,,0.00,1,,109
2013-8-18,73,68,62,68,64,61,100,89,73,30.22,30.17,30.14,10,9,2,6,2,,0.04,5,Rain,140
2013-8-19,80,70,60,70,66,61,100,84,58,30.19,30.15,30.11,10,8,0,7,1,,0.00,5,Fog,98
2013-8-20,84,73,62,70,65,61,100,77,51,30.22,30.17,30.13,10,9,3,8,3,,0.02,2,Rain,123
2013-8-21,82,73,64,73,68,63,100,91,70,30.22,30.18,30.13,10,8,0,10,3,,0.20,2,Fog-Rain,223
2013-8-22,86,76,66,73,70,66,100,88,58,30.18,30.13,30.08,10,8,1,10,3,,0.03,3,Rain,247
2013-8-23,82,73,64,70,67,64,100,82,54,30.17,30.10,30.06,10,8,0,8,1,,0.00,2,Fog,34
2013-8-24,86,72,59,64,60,52,100,72,33,30.30,30.24,30.17,10,10,5,9,2,,0.00,0,,104
2013-8-25,84,70,57,70,63,55,100,77,45,30.38,30.32,30.27,10,10,7,6,2,,0.00,1,,188
2013-8-26,84,73,62,70,67,63,100,82,58,30.32,30.25,30.15,10,10,7,9,4,,0.00,2,,251
2013-8-27,86,77,68,73,71,68,100,83,62,30.16,30.11,30.04,10,9,3,8,5,,0.01,2,Rain,256
2013-8-28,87,79,71,73,72,70,100,81,55,30.06,30.02,29.95,10,8,3,13,7,20,0.00,2,Rain,271
2013-8-29,84,75,66,72,70,66,100,83,58,30.07,30.03,29.99,10,8,0,10,4,,0.00,4,Fog-Rain,28
2013-8-30,87,74,62,72,68,63,100,83,55,30.05,29.99,29.92,10,6,0,7,1,,0.00,4,Fog,247
2013-8-31,82,75,68,73,69,66,100,88,62,30.00,29.92,29.85,10,9,4,15,6,22,0.26,3,Rain,235